Time,TemperatureF,DewpointF,PressureIn,WindDirection,WindDirectionDegrees,WindSpeedMPH,WindSpeedGustMPH,Humidity,HourlyPrecipIn,Conditions,Clouds,dailyrainin,SoftwareType,DateUTC
2013-04-26 00:01:00,57.6,53.1,30.14,NE,45,0.0,1.0,85,0.00,,,0.00,meteohub,2013-04-26 07:01:00,
2013-04-26 00:06:00,57.4,52.9,30.14,NE,45,0.0,0.0,85,0.00,,,0.00,meteohub,2013-04-26 07:06:00,
2013-04-26 00:11:00,57.0,52.2,30.14,NE,45,0.0,0.0,84,0.00,,,0.00,meteohub,2013-04-26 07:11:00,
2013-04-26 00:16:00,56.8,52.3,30.14,NE,45,0.0,0.0,85,0.00,,,0.00,meteohub,2013-04-26 07:16:00,
2013-04-26 00:21:00,56.8,52.7,30.14,NE,45,0.0,0.0,86,0.00,,,0.00,meteohub,2013-04-26 07:21:00,
2013-04-26 00:26:00,56.8,53.1,30.14,NW,315,4.0,0.0,87,0.00,,,0.00,meteohub,2013-04-26 07:26:00,
2013-04-26 00:31:00,57.0,52.9,30.14,North,0,1.0,4.0,86,0.00,,,0.00,meteohub,2013-04-26 07:31:00,
2013-04-26 00:36:00,57.2,53.1,30.14,North,0,0.0,4.0,86,0.00,,,0.00,meteohub,2013-04-26 07:36:00,
2013-04-26 00:41:00,57.2,53.1,30.14,North,0,0.0,4.0,86,0.00,,,0.00,meteohub,2013-04-26 07:41:00,
2013-04-26 00:46:00,57.0,52.9,30.14,North,0,0.0,2.0,86,0.00,,,0.00,meteohub,2013-04-26 07:46:00,
2013-04-26 00:51:00,57.0,52.9,30.14,North,0,0.0,0.0,86,0.00,,,0.00,meteohub,2013-04-26 07:51:00,
2013-04-26 00:56:00,57.2,53.1,30.14,North,0,0.0,0.0,86,0.00,,,0.00,meteohub,2013-04-26 07:56:00,
2013-04-26 01:01:00,57.0,52.5,30.14,North,0,0.0,0.0,85,0.00,,,0.00,meteohub,2013-04-26 08:01:00,
2013-04-26 01:06:00,56.8,52.3,30.14,North,0,0.0,0.0,85,0.00,,,0.00,meteohub,2013-04-26 08:06:00,
2013-04-26 01:11:00,56.7,52.2,30.14,North,0,0.0,0.0,85,0.00,,,0.00,meteohub,2013-04-26 08:11:00,
2013-04-26 01:16:00,56.5,52.0,30.14,North,0,0.0,0.0,85,0.00,,,0.00,meteohub,2013-04-26 08:16:00,
2013-04-26 01:21:00,56.5,52.0,30.14,North,0,2.0,0.0,85,0.00,,,0.00,meteohub,2013-04-26 08:21:00,
2013-04-26 01:26:00,56.7,52.5,30.14,North,0,0.0,2.0,86,0.00,,,0.00,meteohub,2013-04-26 08:26:00,
2013-04-26 01:31:00,56.8,52.7,30.14,North,0,0.0,2.0,86,0.00,,,0.00,meteohub,2013-04-26 08:31:00,
2013-04-26 01:36:00,56.8,52.7,30.14,North,0,0.0,2.0,86,0.00,,,0.00,meteohub,2013-04-26 08:36:00,
2013-04-26 01:41:00,56.8,52.7,30.14,North,0,0.0,2.0,86,0.00,,,0.00,meteohub,2013-04-26 08:41:00,
2013-04-26 01:46:00,56.7,52.2,30.14,North,0,0.0,0.0,85,0.00,,,0.00,meteohub,2013-04-26 08:46:00,
2013-04-26 01:51:00,56.5,52.0,30.14,North,0,3.0,0.0,85,0.00,,,0.00,meteohub,2013-04-26 08:51:00,
2013-04-26 01:56:00,56.3,51.8,30.14,North,0,2.0,4.0,85,0.00,,,0.00,meteohub,2013-04-26 08:56:00,
2013-04-26 02:01:00,56.1,51.6,30.14,North,0,0.0,4.0,85,0.00,,,0.00,meteohub,2013-04-26 09:01:00,
2013-04-26 02:06:00,55.8,51.3,30.14,North,0,0.0,4.0,85,0.00,,,0.00,meteohub,2013-04-26 09:06:00,
2013-04-26 02:11:00,55.6,51.4,30.14,North,0,0.0,2.0,86,0.00,,,0.00,meteohub,2013-04-26 09:11:00,
2013-04-26 02:16:00,55.2,51.1,30.14,North,0,0.0,1.0,86,0.00,,,0.00,meteohub,2013-04-26 09:16:00,
2013-04-26 02:21:00,55.0,51.3,30.14,North,0,0.0,1.0,87,0.00,,,0.00,meteohub,2013-04-26 09:21:00,
2013-04-26 02:26:00,54.9,51.4,30.14,North,0,0.0,1.0,88,0.00,,,0.00,meteohub,2013-04-26 09:26:00,
2013-04-26 02:31:00,54.7,51.3,30.14,North,0,0.0,1.0,88,0.00,,,0.00,meteohub,2013-04-26 09:31:00,
2013-04-26 02:36:00,54.7,51.4,30.14,North,0,0.0,1.0,89,0.00,,,0.00,meteohub,2013-04-26 09:36:00,
2013-04-26 02:41:00,54.9,51.6,30.14,North,0,0.0,0.0,89,0.00,,,0.00,meteohub,2013-04-26 09:41:00,
2013-04-26 02:46:00,54.7,51.4,30.14,North,0,0.0,0.0,89,0.00,,,0.00,meteohub,2013-04-26 09:46:00,
2013-04-26 02:51:00,54.5,51.3,30.14,North,0,0.0,0.0,89,0.00,,,0.00,meteohub,2013-04-26 09:51:00,
2013-04-26 02:56:00,54.3,51.1,30.14,North,0,0.0,0.0,89,0.00,,,0.00,meteohub,2013-04-26 09:56:00,
2013-04-26 03:01:00,54.1,51.3,30.14,North,0,0.0,0.0,90,0.00,,,0.00,meteohub,2013-04-26 10:01:00,
2013-04-26 03:06:00,54.5,51.6,30.14,North,0,0.0,0.0,90,0.00,,,0.00,meteohub,2013-04-26 10:06:00,
2013-04-26 03:11:00,54.3,51.4,30.14,North,0,0.0,0.0,90,0.00,,,0.00,meteohub,2013-04-26 10:11:00,
2013-04-26 03:16:00,54.1,51.3,30.14,North,0,0.0,0.0,90,0.00,,,0.00,meteohub,2013-04-26 10:16:00,
2013-04-26 03:21:00,53.8,50.9,30.14,North,0,0.0,0.0,90,0.00,,,0.00,meteohub,2013-04-26 10:21:00,
2013-04-26 03:26:00,53.6,50.7,30.14,North,0,0.0,0.0,90,0.00,,,0.00,meteohub,2013-04-26 10:26:00,
2013-04-26 03:31:00,53.2,50.4,30.14,North,0,0.0,0.0,90,0.00,,,0.00,meteohub,2013-04-26 10:31:00,
2013-04-26 03:36:00,53.1,50.5,30.14,North,0,0.0,0.0,91,0.00,,,0.00,meteohub,2013-04-26 10:36:00,
2013-04-26 03:41:00,52.9,50.4,30.14,North,0,0.0,0.0,91,0.00,,,0.00,meteohub,2013-04-26 10:41:00,
2013-04-26 03:46:00,52.9,50.5,30.13,North,0,0.0,0.0,92,0.00,,,0.00,meteohub,2013-04-26 10:46:00,
2013-04-26 03:51:00,52.7,50.4,30.14,North,0,0.0,0.0,92,0.00,,,0.00,meteohub,2013-04-26 10:51:00,
2013-04-26 03:56:00,52.7,50.7,30.14,North,0,0.0,0.0,93,0.00,,,0.00,meteohub,2013-04-26 10:56:00,
2013-04-26 04:01:00,52.5,50.2,30.14,North,0,0.0,0.0,92,0.00,,,0.00,meteohub,2013-04-26 11:01:00,
2013-04-26 04:06:00,52.5,50.9,30.14,North,0,0.0,0.0,94,0.00,,,0.00,meteohub,2013-04-26 11:06:00,
2013-04-26 04:11:00,52.7,51.1,30.13,North,0,0.0,0.0,94,0.00,,,0.00,meteohub,2013-04-26 11:11:00,
2013-04-26 04:16:00,52.7,51.1,30.14,North,0,0.0,0.0,94,0.00,,,0.00,meteohub,2013-04-26 11:16:00,
2013-04-26 04:21:00,52.7,51.1,30.13,North,0,0.0,0.0,94,0.00,,,0.00,meteohub,2013-04-26 11:21:00,
2013-04-26 04:26:00,52.7,51.1,30.13,North,0,0.0,0.0,94,0.00,,,0.00,meteohub,2013-04-26 11:26:00,
2013-04-26 04:31:00,52.5,50.5,30.14,North,0,0.0,0.0,93,0.00,,,0.00,meteohub,2013-04-26 11:31:00,
2013-04-26 04:36:00,52.3,50.4,30.14,North,0,0.0,0.0,93,0.00,,,0.00,meteohub,2013-04-26 11:36:00,
2013-04-26 04:41:00,52.0,50.4,30.13,North,0,0.0,0.0,94,0.00,,,0.00,meteohub,2013-04-26 11:41:00,
2013-04-26 04:46:00,52.3,50.9,30.13,North,0,0.0,0.0,95,0.00,,,0.00,meteohub,2013-04-26 11:46:00,
2013-04-26 04:51:00,52.3,50.9,30.13,North,0,0.0,0.0,95,0.00,,,0.00,meteohub,2013-04-26 11:51:00,
2013-04-26 04:56:00,52.3,50.7,30.13,North,0,0.0,0.0,94,0.00,,,0.00,meteohub,2013-04-26 11:56:00,
2013-04-26 05:01:00,52.0,50.4,30.13,North,0,0.0,0.0,94,0.00,,,0.00,meteohub,2013-04-26 12:01:00,
2013-04-26 05:06:00,51.8,50.2,30.13,North,0,0.0,0.0,94,0.00,,,0.00,meteohub,2013-04-26 12:06:00,
2013-04-26 05:11:00,51.8,50.4,30.14,North,0,0.0,0.0,95,0.00,,,0.00,meteohub,2013-04-26 12:11:00,
2013-04-26 05:17:00,51.8,50.4,30.13,North,0,0.0,0.0,95,0.00,,,0.00,meteohub,2013-04-26 12:17:00,
2013-04-26 05:22:00,51.4,50.0,30.13,North,0,0.0,0.0,95,0.00,,,0.00,meteohub,2013-04-26 12:22:00,
2013-04-26 05:27:00,51.6,50.2,30.13,North,0,0.0,0.0,95,0.00,,,0.00,meteohub,2013-04-26 12:27:00,
2013-04-26 05:32:00,51.6,50.5,30.13,North,0,0.0,0.0,96,0.00,,,0.00,meteohub,2013-04-26 12:32:00,
2013-04-26 05:37:00,51.8,50.7,30.13,North,0,0.0,0.0,96,0.00,,,0.00,meteohub,2013-04-26 12:37:00,
2013-04-26 05:42:00,51.8,50.7,30.13,North,0,0.0,0.0,96,0.00,,,0.00,meteohub,2013-04-26 12:42:00,
2013-04-26 05:47:00,52.0,50.9,30.13,North,0,0.0,0.0,96,0.00,,,0.00,meteohub,2013-04-26 12:47:00,
2013-04-26 05:52:00,52.0,50.9,30.13,North,0,0.0,0.0,96,0.00,,,0.00,meteohub,2013-04-26 12:52:00,
2013-04-26 05:57:00,51.4,50.0,30.13,North,0,0.0,0.0,95,0.00,,,0.00,meteohub,2013-04-26 12:57:00,
2013-04-26 06:02:00,51.4,50.4,30.14,North,0,0.0,0.0,96,0.00,,,0.00,meteohub,2013-04-26 13:02:00,
2013-04-26 06:07:00,51.3,50.2,30.14,North,0,0.0,0.0,96,0.00,,,0.00,meteohub,2013-04-26 13:07:00,
2013-04-26 06:12:00,51.4,50.4,30.14,North,0,0.0,0.0,96,0.00,,,0.00,meteohub,2013-04-26 13:12:00,
2013-04-26 06:17:00,51.4,50.5,30.14,North,0,0.0,0.0,97,0.00,,,0.00,meteohub,2013-04-26 13:17:00,
2013-04-26 06:22:00,51.6,50.7,30.14,North,0,0.0,0.0,97,0.00,,,0.00,meteohub,2013-04-26 13:22:00,
2013-04-26 06:27:00,52.2,51.3,30.14,North,0,1.0,1.0,97,0.00,,,0.00,meteohub,2013-04-26 13:27:00,
2013-04-26 06:32:00,52.7,51.8,30.14,North,0,0.0,2.0,97,0.00,,,0.00,meteohub,2013-04-26 13:32:00,
2013-04-26 06:37:00,53.4,52.3,30.15,North,0,0.0,2.0,96,0.00,,,0.00,meteohub,2013-04-26 13:37:00,
2013-04-26 06:42:00,54.5,53.1,30.15,North,0,0.0,2.0,95,0.00,,,0.00,meteohub,2013-04-26 13:42:00,
2013-04-26 06:47:00,55.8,54.3,30.15,North,0,0.0,1.0,95,0.00,,,0.00,meteohub,2013-04-26 13:47:00,
2013-04-26 06:52:00,57.4,55.4,30.15,North,0,0.0,1.0,93,0.00,,,0.00,meteohub,2013-04-26 13:52:00,
2013-04-26 06:57:00,58.8,55.2,30.15,North,0,2.0,2.0,88,0.00,,,0.00,meteohub,2013-04-26 13:57:00,
2013-04-26 07:02:00,59.7,54.1,30.15,North,0,2.0,2.0,82,0.00,,,0.00,meteohub,2013-04-26 14:02:00,
2013-04-26 07:07:00,60.4,54.9,30.15,North,0,2.0,2.0,82,0.00,,,0.00,meteohub,2013-04-26 14:07:00,
2013-04-26 07:12:00,61.0,54.1,30.16,North,0,0.0,2.0,78,0.00,,,0.00,meteohub,2013-04-26 14:12:00,
2013-04-26 07:17:00,62.2,54.9,30.16,North,0,0.0,2.0,77,0.00,,,0.00,meteohub,2013-04-26 14:17:00,
2013-04-26 07:22:00,63.0,53.8,30.16,North,0,1.0,2.0,72,0.00,,,0.00,meteohub,2013-04-26 14:22:00,
2013-04-26 07:27:00,63.3,53.4,30.16,NE,45,2.0,3.0,70,0.00,,,0.00,meteohub,2013-04-26 14:27:00,
2013-04-26 07:32:00,63.7,53.8,30.16,NE,45,3.0,4.0,70,0.00,,,0.00,meteohub,2013-04-26 14:32:00,
2013-04-26 07:37:00,64.8,54.7,30.17,NE,45,1.0,4.0,70,0.00,,,0.00,meteohub,2013-04-26 14:37:00,
2013-04-26 07:42:00,65.8,54.5,30.17,NE,45,3.0,4.0,67,0.00,,,0.00,meteohub,2013-04-26 14:42:00,
2013-04-26 07:47:00,66.7,54.7,30.17,NE,45,1.0,3.0,65,0.00,,,0.00,meteohub,2013-04-26 14:47:00,
2013-04-26 07:52:00,67.3,55.0,30.17,NE,45,2.0,3.0,65,0.00,,,0.00,meteohub,2013-04-26 14:52:00,
2013-04-26 07:57:00,68.0,54.5,30.17,NE,45,2.0,3.0,62,0.00,,,0.00,meteohub,2013-04-26 14:57:00,
2013-04-26 08:02:00,68.4,54.9,30.17,SE,135,3.0,4.0,62,0.00,,,0.00,meteohub,2013-04-26 15:02:00,
2013-04-26 08:07:00,69.4,55.4,30.16,SE,135,2.0,4.0,61,0.00,,,0.00,meteohub,2013-04-26 15:07:00,
2013-04-26 08:12:00,70.9,55.4,30.16,ENE,68,2.0,4.0,58,0.00,,,0.00,meteohub,2013-04-26 15:12:00,
2013-04-26 08:17:00,71.4,55.4,30.17,NE,45,0.0,4.0,57,0.00,,,0.00,meteohub,2013-04-26 15:17:00,
2013-04-26 08:22:00,72.9,56.3,30.17,NE,45,2.0,4.0,56,0.00,,,0.00,meteohub,2013-04-26 15:22:00,
2013-04-26 08:27:00,72.9,54.7,30.16,SE,135,4.0,4.0,53,0.00,,,0.00,meteohub,2013-04-26 15:27:00,
2013-04-26 08:32:00,72.1,55.0,30.16,East,90,2.0,4.0,55,0.00,,,0.00,meteohub,2013-04-26 15:32:00,
2013-04-26 08:37:00,72.5,54.3,30.17,ESE,113,4.0,4.0,53,0.00,,,0.00,meteohub,2013-04-26 15:37:00,
2013-04-26 08:42:00,72.5,55.4,30.17,SE,135,2.0,4.0,55,0.00,,,0.00,meteohub,2013-04-26 15:42:00,
2013-04-26 08:47:00,72.3,55.2,30.17,SE,135,2.0,4.0,55,0.00,,,0.00,meteohub,2013-04-26 15:47:00,
2013-04-26 08:52:00,72.1,55.0,30.17,SE,135,2.0,4.0,55,0.00,,,0.00,meteohub,2013-04-26 15:52:00,
2013-04-26 08:57:00,72.5,54.9,30.17,SE,135,3.0,4.0,54,0.00,,,0.00,meteohub,2013-04-26 15:57:00,
2013-04-26 09:02:00,73.9,56.3,30.17,East,90,1.0,4.0,54,0.00,,,0.00,meteohub,2013-04-26 16:02:00,
2013-04-26 09:07:00,75.0,55.0,30.17,East,90,2.0,4.0,50,0.00,,,0.00,meteohub,2013-04-26 16:07:00,
2013-04-26 09:12:00,74.5,54.1,30.17,East,90,3.0,4.0,49,0.00,,,0.00,meteohub,2013-04-26 16:12:00,
2013-04-26 09:17:00,73.6,54.3,30.17,SSE,158,3.0,4.0,51,0.00,,,0.00,meteohub,2013-04-26 16:17:00,
2013-04-26 09:22:00,74.3,55.0,30.17,SE,135,3.0,4.0,51,0.00,,,0.00,meteohub,2013-04-26 16:22:00,
2013-04-26 09:27:00,75.7,54.1,30.17,NW,315,4.0,4.0,47,0.00,,,0.00,meteohub,2013-04-26 16:27:00,
2013-04-26 09:32:00,75.4,54.9,30.17,North,0,3.0,4.0,49,0.00,,,0.00,meteohub,2013-04-26 16:32:00,
2013-04-26 09:37:00,76.8,56.3,30.17,NE,45,2.0,4.0,49,0.00,,,0.00,meteohub,2013-04-26 16:37:00,
2013-04-26 09:43:00,76.6,54.9,30.17,South,180,1.0,4.0,47,0.00,,,0.00,meteohub,2013-04-26 16:43:00,
2013-04-26 09:48:00,76.6,53.1,30.17,West,270,5.0,5.0,44,0.00,,,0.00,meteohub,2013-04-26 16:48:00,
2013-04-26 09:53:00,74.3,54.0,30.17,North,0,2.0,5.0,49,0.00,,,0.00,meteohub,2013-04-26 16:53:00,
2013-04-26 09:58:00,77.4,54.3,30.17,NE,45,2.0,5.0,45,0.00,,,0.00,meteohub,2013-04-26 16:58:00,
2013-04-26 10:03:00,79.7,54.5,30.17,SE,135,2.0,5.0,42,0.00,,,0.00,meteohub,2013-04-26 17:03:00,
2013-04-26 10:08:00,78.3,54.5,30.17,NE,45,4.0,5.0,44,0.00,,,0.00,meteohub,2013-04-26 17:08:00,
2013-04-26 10:13:00,79.2,54.1,30.17,East,90,7.0,7.0,42,0.00,,,0.00,meteohub,2013-04-26 17:13:00,
2013-04-26 10:18:00,79.2,54.7,30.17,NE,45,2.0,5.0,43,0.00,,,0.00,meteohub,2013-04-26 17:18:00,
2013-04-26 10:23:00,79.9,54.7,30.17,NE,45,1.0,8.0,42,0.00,,,0.00,meteohub,2013-04-26 17:23:00,
2013-04-26 10:28:00,81.1,54.5,30.17,NE,45,3.0,8.0,40,0.00,,,0.00,meteohub,2013-04-26 17:28:00,
2013-04-26 10:33:00,77.7,54.1,30.17,NW,315,6.0,6.0,44,0.00,,,0.00,meteohub,2013-04-26 17:33:00,
2013-04-26 10:39:00,75.4,55.9,30.17,NW,315,8.0,10.0,51,0.00,,,0.00,meteohub,2013-04-26 17:39:00,
2013-04-26 10:44:00,74.7,56.5,30.17,NW,315,8.0,10.0,53,0.00,,,0.00,meteohub,2013-04-26 17:44:00,
2013-04-26 10:49:00,75.2,56.3,30.17,NW,315,7.0,10.0,52,0.00,,,0.00,meteohub,2013-04-26 17:49:00,
2013-04-26 10:54:00,73.8,56.1,30.17,West,270,7.0,10.0,54,0.00,,,0.00,meteohub,2013-04-26 17:54:00,
2013-04-26 10:59:00,73.6,56.5,30.17,NW,315,7.0,10.0,55,0.00,,,0.00,meteohub,2013-04-26 17:59:00,
2013-04-26 11:04:00,74.1,55.9,30.17,WNW,293,11.0,11.0,53,0.00,,,0.00,meteohub,2013-04-26 18:04:00,
2013-04-26 11:10:00,73.4,56.3,30.17,West,270,9.0,11.0,55,0.00,,,0.00,meteohub,2013-04-26 18:10:00,
2013-04-26 11:15:00,73.8,55.6,30.17,NW,315,9.0,11.0,53,0.00,,,0.00,meteohub,2013-04-26 18:15:00,
2013-04-26 11:20:00,74.1,55.4,30.17,West,270,6.0,11.0,52,0.00,,,0.00,meteohub,2013-04-26 18:20:00,
2013-04-26 11:25:00,73.8,56.7,30.16,North,0,11.0,11.0,55,0.00,,,0.00,meteohub,2013-04-26 18:25:00,
2013-04-26 11:30:00,72.9,55.8,30.16,WNW,293,8.0,11.0,55,0.00,,,0.00,meteohub,2013-04-26 18:30:00,
2013-04-26 11:35:00,73.6,55.4,30.16,NW,315,7.0,11.0,53,0.00,,,0.00,meteohub,2013-04-26 18:35:00,
2013-04-26 11:40:00,73.6,55.4,30.16,West,270,8.0,11.0,53,0.00,,,0.00,meteohub,2013-04-26 18:40:00,
2013-04-26 11:45:00,72.7,54.5,30.16,West,270,11.0,11.0,53,0.00,,,0.00,meteohub,2013-04-26 18:45:00,
2013-04-26 11:50:00,72.9,54.1,30.16,NW,315,11.0,11.0,52,0.00,,,0.00,meteohub,2013-04-26 18:50:00,
2013-04-26 11:55:00,73.4,53.6,30.17,West,270,8.0,11.0,50,0.00,,,0.00,meteohub,2013-04-26 18:55:00,
2013-04-26 12:00:00,72.7,54.0,30.16,NW,315,10.0,13.0,52,0.00,,,0.00,meteohub,2013-04-26 19:00:00,
2013-04-26 12:05:00,72.1,53.6,30.17,West,270,11.0,13.0,52,0.00,,,0.00,meteohub,2013-04-26 19:05:00,
2013-04-26 12:10:00,72.0,53.4,30.17,NW,315,11.0,13.0,52,0.00,,,0.00,meteohub,2013-04-26 19:10:00,
2013-04-26 12:15:00,72.5,55.4,30.17,NW,315,6.0,13.0,55,0.00,,,0.00,meteohub,2013-04-26 19:15:00,
2013-04-26 12:20:00,72.0,54.3,30.16,West,270,13.0,13.0,54,0.00,,,0.00,meteohub,2013-04-26 19:20:00,
2013-04-26 12:25:00,72.5,54.3,30.16,NW,315,9.0,13.0,53,0.00,,,0.00,meteohub,2013-04-26 19:25:00,
2013-04-26 12:30:00,72.9,53.6,30.16,West,270,11.0,13.0,51,0.00,,,0.00,meteohub,2013-04-26 19:30:00,
2013-04-26 12:35:00,73.0,53.8,30.16,West,270,9.0,15.0,51,0.00,,,0.00,meteohub,2013-04-26 19:35:00,
2013-04-26 12:40:00,72.9,53.6,30.16,West,270,14.0,15.0,51,0.00,,,0.00,meteohub,2013-04-26 19:40:00,
2013-04-26 12:45:00,72.7,52.9,30.16,NW,315,10.0,15.0,50,0.00,,,0.00,meteohub,2013-04-26 19:45:00,
2013-04-26 12:50:00,73.2,53.4,30.16,West,270,9.0,14.0,50,0.00,,,0.00,meteohub,2013-04-26 19:50:00,
2013-04-26 12:55:00,73.8,52.3,30.15,West,270,12.0,14.0,47,0.00,,,0.00,meteohub,2013-04-26 19:55:00,
2013-04-26 13:00:00,73.8,52.9,30.15,NNW,338,8.0,14.0,48,0.00,,,0.00,meteohub,2013-04-26 20:00:00,
2013-04-26 13:05:00,74.1,52.0,30.15,NW,315,7.0,14.0,46,0.00,,,0.00,meteohub,2013-04-26 20:05:00,
2013-04-26 13:10:00,73.2,51.8,30.15,WNW,293,12.0,14.0,47,0.00,,,0.00,meteohub,2013-04-26 20:10:00,
2013-04-26 13:15:00,73.0,51.1,30.15,WNW,293,12.0,14.0,46,0.00,,,0.00,meteohub,2013-04-26 20:15:00,
2013-04-26 13:20:00,72.9,52.0,30.15,West,270,12.0,14.0,48,0.00,,,0.00,meteohub,2013-04-26 20:20:00,
2013-04-26 13:25:00,73.9,52.5,30.15,WNW,293,11.0,12.0,47,0.00,,,0.00,meteohub,2013-04-26 20:25:00,
2013-04-26 13:30:00,73.0,52.7,30.15,West,270,12.0,13.0,49,0.00,,,0.00,meteohub,2013-04-26 20:30:00,
2013-04-26 13:35:00,73.6,52.7,30.15,West,270,11.0,14.0,48,0.00,,,0.00,meteohub,2013-04-26 20:35:00,
2013-04-26 13:40:00,73.4,52.0,30.15,West,270,11.0,15.0,47,0.00,,,0.00,meteohub,2013-04-26 20:40:00,
2013-04-26 13:45:00,73.6,53.2,30.15,NW,315,11.0,15.0,49,0.00,,,0.00,meteohub,2013-04-26 20:45:00,
2013-04-26 13:50:00,74.1,52.5,30.15,West,270,15.0,15.0,47,0.00,,,0.00,meteohub,2013-04-26 20:50:00,
2013-04-26 13:55:00,73.8,51.6,30.14,NW,315,14.0,15.0,46,0.00,,,0.00,meteohub,2013-04-26 20:55:00,
2013-04-26 14:00:00,73.6,52.7,30.14,NW,315,10.0,16.0,48,0.00,,,0.00,meteohub,2013-04-26 21:00:00,
2013-04-26 14:05:00,73.2,51.8,30.14,NW,315,11.0,18.0,47,0.00,,,0.00,meteohub,2013-04-26 21:05:00,
2013-04-26 14:10:00,73.8,51.1,30.14,NW,315,11.0,18.0,45,0.00,,,0.00,meteohub,2013-04-26 21:10:00,
2013-04-26 14:15:00,73.6,50.4,30.14,NW,315,16.0,18.0,44,0.00,,,0.00,meteohub,2013-04-26 21:15:00,
2013-04-26 14:20:00,73.0,51.6,30.14,NW,315,15.0,17.0,47,0.00,,,0.00,meteohub,2013-04-26 21:20:00,
2013-04-26 14:25:00,72.7,52.3,30.14,NW,315,15.0,17.0,49,0.00,,,0.00,meteohub,2013-04-26 21:25:00,
2013-04-26 14:30:00,72.7,53.4,30.14,North,0,12.0,17.0,51,0.00,,,0.00,meteohub,2013-04-26 21:30:00,
2013-04-26 14:35:00,72.7,53.4,30.14,NNW,338,16.0,17.0,51,0.00,,,0.00,meteohub,2013-04-26 21:35:00,
2013-04-26 14:40:00,72.7,53.4,30.14,WNW,293,13.0,17.0,51,0.00,,,0.00,meteohub,2013-04-26 21:40:00,
2013-04-26 14:45:00,72.1,54.1,30.14,NW,315,11.0,17.0,53,0.00,,,0.00,meteohub,2013-04-26 21:45:00,
2013-04-26 14:50:00,72.1,52.5,30.14,NW,315,14.0,17.0,50,0.00,,,0.00,meteohub,2013-04-26 21:50:00,
2013-04-26 14:55:00,73.0,53.8,30.14,West,270,6.0,17.0,51,0.00,,,0.00,meteohub,2013-04-26 21:55:00,
2013-04-26 15:00:00,73.0,51.6,30.13,NW,315,14.0,17.0,47,0.00,,,0.00,meteohub,2013-04-26 22:00:00,
2013-04-26 15:05:00,72.3,51.4,30.13,NW,315,14.0,17.0,48,0.00,,,0.00,meteohub,2013-04-26 22:05:00,
2013-04-26 15:10:00,72.1,52.5,30.13,ENE,68,11.0,17.0,50,0.00,,,0.00,meteohub,2013-04-26 22:10:00,
2013-04-26 15:15:00,72.9,52.5,30.13,WNW,293,17.0,17.0,49,0.00,,,0.00,meteohub,2013-04-26 22:15:00,
2013-04-26 15:20:00,72.0,52.9,30.13,NW,315,16.0,17.0,51,0.00,,,0.00,meteohub,2013-04-26 22:20:00,
2013-04-26 15:25:00,71.6,53.6,30.13,NW,315,13.0,17.0,53,0.00,,,0.00,meteohub,2013-04-26 22:25:00,
2013-04-26 15:30:00,71.4,52.9,30.12,NW,315,14.0,17.0,52,0.00,,,0.00,meteohub,2013-04-26 22:30:00,
2013-04-26 15:35:00,72.3,54.7,30.13,NW,315,14.0,16.0,54,0.00,,,0.00,meteohub,2013-04-26 22:35:00,
2013-04-26 15:40:00,71.8,54.7,30.12,WNW,293,11.0,15.0,55,0.00,,,0.00,meteohub,2013-04-26 22:40:00,
2013-04-26 15:45:00,72.0,51.8,30.12,NW,315,13.0,16.0,49,0.00,,,0.00,meteohub,2013-04-26 22:45:00,
2013-04-26 15:50:00,71.4,52.9,30.12,NW,315,10.0,16.0,52,0.00,,,0.00,meteohub,2013-04-26 22:50:00,
2013-04-26 15:55:00,71.6,52.0,30.12,North,0,14.0,15.0,50,0.00,,,0.00,meteohub,2013-04-26 22:55:00,
2013-04-26 16:00:00,71.4,54.0,30.12,North,0,8.0,15.0,54,0.00,,,0.00,meteohub,2013-04-26 23:00:00,
2013-04-26 16:05:00,72.5,51.6,30.12,NW,315,9.0,15.0,48,0.00,,,0.00,meteohub,2013-04-26 23:05:00,
2013-04-26 16:10:00,72.5,51.1,30.12,NW,315,14.0,15.0,47,0.00,,,0.00,meteohub,2013-04-26 23:10:00,
2013-04-26 16:15:00,72.5,53.4,30.12,NW,315,8.0,15.0,51,0.00,,,0.00,meteohub,2013-04-26 23:15:00,
2013-04-26 16:20:00,72.3,53.2,30.11,NW,315,15.0,15.0,51,0.00,,,0.00,meteohub,2013-04-26 23:20:00,
2013-04-26 16:25:00,71.8,54.3,30.11,NW,315,12.0,15.0,54,0.00,,,0.00,meteohub,2013-04-26 23:25:00,
2013-04-26 16:30:00,72.0,54.9,30.11,NW,315,7.0,15.0,55,0.00,,,0.00,meteohub,2013-04-26 23:30:00,
2013-04-26 16:35:00,72.5,54.9,30.11,NW,315,10.0,15.0,54,0.00,,,0.00,meteohub,2013-04-26 23:35:00,
2013-04-26 16:41:00,73.0,54.9,30.11,NW,315,11.0,14.0,53,0.00,,,0.00,meteohub,2013-04-26 23:41:00,
2013-04-26 16:46:00,72.1,55.6,30.11,NW,315,12.0,14.0,56,0.00,,,0.00,meteohub,2013-04-26 23:46:00,
2013-04-26 16:51:00,72.0,55.9,30.11,NW,315,9.0,14.0,57,0.00,,,0.00,meteohub,2013-04-26 23:51:00,
2013-04-26 17:05:00,72.7,57.0,30.11,NW,315,9.0,12.0,58,0.00,,,0.00,meteohub,2013-04-27 00:05:00,
2013-04-26 17:10:00,72.3,57.2,30.11,NW,315,9.0,11.0,59,0.00,,,0.00,meteohub,2013-04-27 00:10:00,
2013-04-26 17:15:00,72.3,57.2,30.11,NW,315,8.0,11.0,59,0.00,,,0.00,meteohub,2013-04-27 00:15:00,
2013-04-26 17:20:00,72.7,57.6,30.11,West,270,6.0,11.0,59,0.00,,,0.00,meteohub,2013-04-27 00:20:00,
2013-04-26 17:25:00,72.5,57.4,30.11,NW,315,8.0,11.0,59,0.00,,,0.00,meteohub,2013-04-27 00:25:00,
2013-04-26 17:30:00,72.3,57.7,30.11,West,270,8.0,10.0,60,0.00,,,0.00,meteohub,2013-04-27 00:30:00,
2013-04-26 17:35:00,71.4,57.7,30.11,WNW,293,10.0,11.0,62,0.00,,,0.00,meteohub,2013-04-27 00:35:00,
2013-04-26 17:40:00,71.2,57.6,30.11,NW,315,9.0,11.0,62,0.00,,,0.00,meteohub,2013-04-27 00:40:00,
2013-04-26 17:45:00,71.2,57.0,30.11,NW,315,9.0,11.0,61,0.00,,,0.00,meteohub,2013-04-27 00:45:00,
2013-04-26 17:50:00,72.0,57.7,30.11,North,0,4.0,10.0,61,0.00,,,0.00,meteohub,2013-04-27 00:50:00,
2013-04-26 17:55:00,72.5,55.4,30.11,North,0,5.0,9.0,55,0.00,,,0.00,meteohub,2013-04-27 00:55:00,
2013-04-26 18:00:00,73.2,54.0,30.11,North,0,5.0,9.0,51,0.00,,,0.00,meteohub,2013-04-27 01:00:00,
2013-04-26 18:05:00,73.2,53.4,30.11,North,0,4.0,7.0,50,0.00,,,0.00,meteohub,2013-04-27 01:05:00,
2013-04-26 18:10:00,73.2,53.4,30.11,North,0,4.0,7.0,50,0.00,,,0.00,meteohub,2013-04-27 01:10:00,
2013-04-26 18:15:00,73.2,52.9,30.11,North,0,8.0,8.0,49,0.00,,,0.00,meteohub,2013-04-27 01:15:00,
2013-04-26 18:20:00,73.0,53.2,30.11,North,0,4.0,8.0,50,0.00,,,0.00,meteohub,2013-04-27 01:20:00,
2013-04-26 18:25:00,72.9,53.6,30.11,NE,45,3.0,8.0,51,0.00,,,0.00,meteohub,2013-04-27 01:25:00,
2013-04-26 18:30:00,72.7,54.0,30.11,North,0,4.0,8.0,52,0.00,,,0.00,meteohub,2013-04-27 01:30:00,
2013-04-26 18:35:00,72.3,54.1,30.11,NE,45,4.0,7.0,53,0.00,,,0.00,meteohub,2013-04-27 01:35:00,
2013-04-26 18:40:00,71.8,53.8,30.11,North,0,5.0,7.0,53,0.00,,,0.00,meteohub,2013-04-27 01:40:00,
2013-04-26 18:45:00,71.2,54.3,30.12,North,0,4.0,8.0,55,0.00,,,0.00,meteohub,2013-04-27 01:45:00,
2013-04-26 18:50:00,70.7,53.8,30.11,North,0,10.0,10.0,55,0.00,,,0.00,meteohub,2013-04-27 01:50:00,
2013-04-26 18:55:00,70.0,54.0,30.12,North,0,5.0,10.0,57,0.00,,,0.00,meteohub,2013-04-27 01:55:00,
2013-04-26 19:01:00,69.6,53.8,30.12,NE,45,5.0,10.0,57,0.00,,,0.00,meteohub,2013-04-27 02:01:00,
2013-04-26 19:06:00,68.7,53.8,30.12,NE,45,5.0,10.0,59,0.00,,,0.00,meteohub,2013-04-27 02:06:00,
2013-04-26 19:11:00,68.2,54.1,30.12,NE,45,5.0,7.0,61,0.00,,,0.00,meteohub,2013-04-27 02:11:00,
2013-04-26 19:16:00,67.1,54.1,30.12,NE,45,6.0,7.0,63,0.00,,,0.00,meteohub,2013-04-27 02:16:00,
2013-04-26 19:21:00,66.6,54.5,30.12,North,0,2.0,6.0,65,0.00,,,0.00,meteohub,2013-04-27 02:21:00,
2013-04-26 19:26:00,66.0,54.7,30.12,NNE,23,2.0,6.0,67,0.00,,,0.00,meteohub,2013-04-27 02:26:00,
2013-04-26 19:31:00,65.5,54.7,30.12,NNE,23,4.0,6.0,68,0.00,,,0.00,meteohub,2013-04-27 02:31:00,
2013-04-26 19:36:00,64.9,54.1,30.12,North,0,3.0,5.0,68,0.00,,,0.00,meteohub,2013-04-27 02:36:00,
2013-04-26 19:41:00,64.6,54.1,30.13,NE,45,4.0,5.0,69,0.00,,,0.00,meteohub,2013-04-27 02:41:00,
2013-04-26 19:46:00,64.2,54.3,30.12,NE,45,4.0,6.0,70,0.00,,,0.00,meteohub,2013-04-27 02:46:00,
2013-04-26 19:51:00,63.9,54.0,30.12,North,0,4.0,6.0,70,0.00,,,0.00,meteohub,2013-04-27 02:51:00,
2013-04-26 19:56:00,63.5,54.0,30.12,NE,45,3.0,6.0,71,0.00,,,0.00,meteohub,2013-04-27 02:56:00,
2013-04-26 20:01:00,63.1,54.3,30.13,East,90,4.0,4.0,73,0.00,,,0.00,meteohub,2013-04-27 03:01:00,
2013-04-26 20:06:00,63.0,54.5,30.12,NE,45,2.0,4.0,74,0.00,,,0.00,meteohub,2013-04-27 03:06:00,
2013-04-26 20:11:00,62.8,54.7,30.12,NE,45,4.0,4.0,75,0.00,,,0.00,meteohub,2013-04-27 03:11:00,
2013-04-26 20:16:00,62.6,54.5,30.13,NE,45,3.0,4.0,75,0.00,,,0.00,meteohub,2013-04-27 03:16:00,
2013-04-26 20:21:00,62.4,55.0,30.13,North,0,3.0,4.0,77,0.00,,,0.00,meteohub,2013-04-27 03:21:00,
2013-04-26 20:26:00,62.2,54.9,30.13,North,0,2.0,4.0,77,0.00,,,0.00,meteohub,2013-04-27 03:26:00,
2013-04-26 20:31:00,62.1,54.7,30.13,North,0,3.0,4.0,77,0.00,,,0.00,meteohub,2013-04-27 03:31:00,
2013-04-26 20:36:00,61.9,54.9,30.14,NNE,23,3.0,4.0,78,0.00,,,0.00,meteohub,2013-04-27 03:36:00,
2013-04-26 20:41:00,61.7,54.9,30.14,NNE,23,2.0,4.0,78,0.00,,,0.00,meteohub,2013-04-27 03:41:00,
2013-04-26 20:46:00,61.5,54.7,30.14,NNE,23,3.0,3.0,78,0.00,,,0.00,meteohub,2013-04-27 03:46:00,
2013-04-26 20:51:00,61.5,54.7,30.14,NNE,23,2.0,3.0,78,0.00,,,0.00,meteohub,2013-04-27 03:51:00,
2013-04-26 20:56:00,61.3,54.5,30.14,NNE,23,2.0,3.0,78,0.00,,,0.00,meteohub,2013-04-27 03:56:00,
2013-04-26 21:01:00,61.2,54.3,30.14,NNE,23,0.0,3.0,78,0.00,,,0.00,meteohub,2013-04-27 04:01:00,
2013-04-26 21:06:00,61.0,54.7,30.15,NNE,23,0.0,3.0,80,0.00,,,0.00,meteohub,2013-04-27 04:06:00,
2013-04-26 21:11:00,60.8,54.3,30.15,NNE,23,0.0,2.0,79,0.00,,,0.00,meteohub,2013-04-27 04:11:00,
2013-04-26 21:16:00,60.6,54.7,30.15,NNE,23,0.0,2.0,81,0.00,,,0.00,meteohub,2013-04-27 04:16:00,
2013-04-26 21:21:00,60.6,54.7,30.15,NNE,23,2.0,2.0,81,0.00,,,0.00,meteohub,2013-04-27 04:21:00,
2013-04-26 21:26:00,60.4,54.5,30.15,NNE,23,1.0,3.0,81,0.00,,,0.00,meteohub,2013-04-27 04:26:00,
2013-04-26 21:31:00,60.3,54.3,30.15,NNE,23,0.0,3.0,81,0.00,,,0.00,meteohub,2013-04-27 04:31:00,
2013-04-26 21:36:00,60.1,54.5,30.16,NNE,23,3.0,3.0,82,0.00,,,0.00,meteohub,2013-04-27 04:36:00,
2013-04-26 21:42:00,60.1,54.9,30.16,NNE,23,0.0,3.0,83,0.00,,,0.00,meteohub,2013-04-27 04:42:00,
2013-04-26 21:47:00,60.3,55.0,30.16,North,0,2.0,3.0,83,0.00,,,0.00,meteohub,2013-04-27 04:47:00,
2013-04-26 21:52:00,60.3,55.0,30.16,North,0,2.0,3.0,83,0.00,,,0.00,meteohub,2013-04-27 04:52:00,
2013-04-26 21:57:00,60.3,55.0,30.16,North,0,2.0,3.0,83,0.00,,,0.00,meteohub,2013-04-27 04:57:00,
2013-04-26 22:02:00,59.9,54.7,30.16,North,0,0.0,3.0,83,0.00,,,0.00,meteohub,2013-04-27 05:02:00,
2013-04-26 22:07:00,59.5,54.0,30.16,North,0,0.0,2.0,82,0.00,,,0.00,meteohub,2013-04-27 05:07:00,
2013-04-26 22:12:00,59.5,54.7,30.17,North,0,0.0,2.0,84,0.00,,,0.00,meteohub,2013-04-27 05:12:00,
2013-04-26 22:17:00,59.7,55.6,30.17,North,0,0.0,0.0,86,0.00,,,0.00,meteohub,2013-04-27 05:17:00,
2013-04-26 22:22:00,59.7,55.8,30.16,North,0,0.0,0.0,87,0.00,,,0.00,meteohub,2013-04-27 05:22:00,
2013-04-26 22:27:00,59.5,55.4,30.16,North,0,0.0,0.0,86,0.00,,,0.00,meteohub,2013-04-27 05:27:00,
2013-04-26 22:32:00,59.4,55.4,30.16,North,0,0.0,0.0,87,0.00,,,0.00,meteohub,2013-04-27 05:32:00,
2013-04-26 22:37:00,59.0,55.2,30.16,North,0,0.0,0.0,87,0.00,,,0.00,meteohub,2013-04-27 05:37:00,
2013-04-26 22:42:00,58.6,54.9,30.16,North,0,0.0,0.0,87,0.00,,,0.00,meteohub,2013-04-27 05:42:00,
2013-04-26 22:47:00,58.5,54.7,30.16,North,0,0.0,0.0,87,0.00,,,0.00,meteohub,2013-04-27 05:47:00,
2013-04-26 22:52:00,58.3,54.5,30.17,North,0,0.0,0.0,87,0.00,,,0.00,meteohub,2013-04-27 05:52:00,
2013-04-26 22:57:00,58.3,54.7,30.17,North,0,0.0,0.0,88,0.00,,,0.00,meteohub,2013-04-27 05:57:00,
2013-04-26 23:02:00,58.5,55.2,30.17,North,0,0.0,0.0,89,0.00,,,0.00,meteohub,2013-04-27 06:02:00,
2013-04-26 23:07:00,58.5,54.9,30.17,North,0,0.0,0.0,88,0.00,,,0.00,meteohub,2013-04-27 06:07:00,
2013-04-26 23:12:00,58.1,54.5,30.17,North,0,0.0,0.0,88,0.00,,,0.00,meteohub,2013-04-27 06:12:00,
2013-04-26 23:17:00,57.7,54.1,30.17,North,0,0.0,0.0,88,0.00,,,0.00,meteohub,2013-04-27 06:17:00,
2013-04-26 23:22:00,57.6,54.3,30.17,North,0,0.0,0.0,89,0.00,,,0.00,meteohub,2013-04-27 06:22:00,
2013-04-26 23:27:00,57.6,54.3,30.17,North,0,0.0,0.0,89,0.00,,,0.00,meteohub,2013-04-27 06:27:00,
2013-04-26 23:32:00,57.6,54.7,30.17,North,0,0.0,0.0,90,0.00,,,0.00,meteohub,2013-04-27 06:32:00,
2013-04-26 23:37:00,57.4,54.5,30.17,North,0,0.0,0.0,90,0.00,,,0.00,meteohub,2013-04-27 06:37:00,
2013-04-26 23:42:00,57.2,54.3,30.17,North,0,0.0,0.0,90,0.00,,,0.00,meteohub,2013-04-27 06:42:00,
2013-04-26 23:47:00,57.4,54.9,30.17,North,0,0.0,0.0,91,0.00,,,0.00,meteohub,2013-04-27 06:47:00,
2013-04-26 23:52:00,57.6,55.0,30.17,North,0,0.0,0.0,91,0.00,,,0.00,meteohub,2013-04-27 06:52:00,
2013-04-26 23:57:00,57.6,55.0,30.17,North,0,0.0,0.0,91,0.00,,,0.00,meteohub,2013-04-27 06:57:00,